Погода в Ванкареме

Россия / Чукотский автономный округ     67°50′27″N   175°50′17″W
темп.,
°C
ветер,
м/с
пор.,
м/с
влажн.,
%
обл.,
%
осадки,
мм/ч
давл.,
гПа
погр.,
м
25 января, вт
вт2500:00−33зсз46100100 0.0 100467
03:00−32зсз47100100 0.0 1004109
06:00−32зсз4710082 0.1 100598
09:00−34з451006 0.0 100650
12:00−34зюз45985 0.0 100746
15:00−33зюз469628 0.0 100873
18:00−28зсз5896100 0.0 1010193
21:00−27з5896100 0.1 1012220
26 января, ср
ср2600:00−29зюз4798100 0.1 1015124
03:00−28зюз4796100 0.1 1018118
06:00−31зюз468967 0.1 102064
09:00−32юз45895 0.0 102347
12:00−33юз44895 0.0 102642
15:00−34юз339160 0.0 102833
18:00−34юз3392100 0.0 102934
21:00−33ююз2294100 0.0 103126
27 января, чт
чт2700:00−33ю229365 0.0 103221
03:00−33ююз349019 0.0 103236
06:00−32ююз35905 0.0 103350
09:00−32ююз35905 0.0 103453
12:00−31ююз46895 0.0 103576
15:00−32ююз35895 0.0 103546
18:00−32юз34905 0.0 103743
21:00−33юз33915 0.0 103831
28 января, пт
пт2800:00−34юз33925 0.0 103925
03:00−36юз22965 0.0 103810
06:00−35ююз11955 0.0 10399
09:00−35ююз229522 0.0 103910
12:00−33ююв229510 0.0 103817
15:00−32юв229726 0.0 103715
18:00−32юв22979 0.0 103617
21:00−30юв229579 0.0 103625
29 января, сб
сб2900:00−29юв229461 0.0 103525
03:00−27юв349254 0.0 103338
06:00−27юв33945 0.0 103230
09:00−25ююв33958 0.0 103134
12:00−21ююв359395 0.0 102947
15:00−20ююв468753 0.0 102848
18:00−17ю587922 0.0 102776
21:00−15ююз5107514 0.0 1026115